THORAD AGENA D DEB, 4868

Orbit data source: Space-Track

THORAD AGENA D DEB, 4868 is space debris in SSO originally from a launch on Wed, 08 Apr 1970 UTC launched from the Air Force Western Test Range (AFWTR). Debris objects in space refer to the collection of defunct objects orbiting the Earth. Examples of debris include non-operational satellites, rocket bodies, and fragments generated from explosions, collisions, or faulty payload assembly.

Loading next visibility...
Identifier
4868, 1970-025EY
Orbit
SSO
Country
Flag of USUS
Related business
Manufacturer
Unknown
Mission
Spacecraft
Bus & Motor
Unknown
Mass
Unknown
Launch date (UTC)
1970-04-08 (56 years ago)
Launch vehicle
Unknown
Launch site
Air Force Western Test Range (AFWTR)
Object type
Payload
Rocket body
Debris
Shape & HBR
Unknown shape, 0.1 m
Radar Cross Section
Medium (>0.1 m² and <1 m²)

Expand to show TLE details & history
Last TLE update: 18 hours ago

TLE from 18 hours ago
0 THORAD AGENA D DEB
1 04868U 70025EY  26256.71313780  .00001041  00000-0  70995-3 0  9990
2 04868  99.7161 334.5653 0056101 179.9977 180.1195 14.01631422847617
Epoch: 2026-09-13T17:06Z
TLE epoch observation values (Epoch: 2026-09-13T17:06:55.105Z)
Latitude
-0.00009°
Longitude
85.13187°
Altitude
931.779 km
Speed
7.365 km/s
True Right ascension
22h 18m 15s
True Declination
0° 00' 00"
Sunlit
Object was in full shadow at epoch
Visualization orbit readout
Latitude
Unknown
Longitude
Unknown
Altitude
Unknown
Speed
Unknown
Apparent Right ascension
Unknown
Apparent Declination
Unknown
Sunlit
N/A
Visualization observer readout
Local Sidereal Time
03:30:51
Azimuth
Unknown
Elevation
Unknown
Doppler factor
Unknown
Orbital elements
Apogee altitude
926.134 km
Perigee altitude
844.636 km
Semi-major axis
7,263.522 km
Eccentricity
0.00561
Inclination
99.7161°
RAAN
334.5653°
Arg. of periapsis
179.9977°
True anomaly
180.11817°
Mean anomaly
180.1195°
Eccentric anomaly
180.11883°
Mean motion
3.50608 °/min
Orbital period
102.68 mins
BSTAR
0.00070995
Loading maneuver chart data...
Computing Atmospheric mass density...

Documentation

Showing up to 5 results
|